Regional Weather Roundup
Issued by NWS

Home | Current Version | Previous Version | Graphics & Text | Print | Product List | Glossary On
Versions: 1 2 3 4 5 6 7 8 9 10 11 12 13 14 15 16 17 18 19 20 21 22 23 24 25 26 27
000
ASUS45 KTFX 241410
RWRMT
MONTANA REGIONAL WEATHER ROUNDUP
NATIONAL WEATHER SERVICE GREAT FALLS MT
700 AM MST FRI FEB 24 2017

NOTE: "FAIR" INDICATES FEW OR NO CLOUDS BELOW 12000 FEET WITH NO
SIGNIFICANT WEATHER AND/OR OBSTRUCTIONS TO VISIBILITY.

MTZ001>007-043-241500-
WEST OF THE DIVIDE

CITY           SKY/WX    TMP DP  RH WIND       PRES   REMARKS
KALISPELL      CLEAR      8   6  92 CALM      30.05R
MISSOULA       CLOUDY    26  17  68 NW8       30.04R WCI  18
BUTTE          LGT SNOW  16  12  84 CALM      29.90R FOG
MULLAN PASS    PTCLDY    11   8  88 NW5       29.90R
ANACONDA         N/A     16  10  79 SW5       29.94R
DEER LODGE       N/A     19  18  93 CALM      29.97R
EUREKA           N/A     12   9  85 CALM      30.09R
HAMILTON         N/A     27  18  69 NW7       30.00R WCI  19
LIBBY            N/A      7   5  92 CALM      30.09R
RONAN            N/A     23  20  89 CALM      30.06R
$$

MTZ008-052>055-241500-
SOUTHWEST MONTANA

CITY           SKY/WX    TMP DP  RH WIND       PRES   REMARKS
BOZEMAN        CLOUDY    23  19  85 CALM      29.94R
DILLON         LGT SNOW  20  15  81 NE5       29.89R
W YELLOWSTONE  LGT SNOW  12   9  85 CALM      29.83R
ENNIS          CLOUDY    16  14  93 S5        29.93R FOG
THREE FORKS      N/A     21  -5  31 SW1       29.94R
$$

MTZ009-010-012-014-046-048-049-054-241500-
EAST SLOPES AND CENTRAL MONTANA

CITY           SKY/WX    TMP DP  RH WIND       PRES   REMARKS
CUT BANK       FOG       14  12  92 W6        29.96S VSB 3/4 WCI   5
GREAT FALLS    CLOUDY    24  20  84 CALM      29.97R
MALMSTROM AFB  FLURRIES  24  24  99 CALM      29.99R
HELENA         CLOUDY    23  20  88 SW3       29.96R
AUGUSTA          N/A     14  12  92 CALM      29.93R
BOWMANS CRNR   CLOUDY    19  18  96 W6        29.92R WCI  11
CHOTEAU          N/A     16  16 100 W5        29.97S
CONRAD           N/A     17  16  96 NE1       30.00R
POWER            N/A     21  18  86 CALM      29.96R
RAYNESFORD     FLURRIES  17  14  87 CALM      29.96S
ULM            CLOUDY    24  22  91 MISG      29.97S
$$

MTZ011-013-016-021-045-047-050-051-241500-
NORTH CENTRAL MONTANA

CITY           SKY/WX    TMP DP  RH WIND       PRES   REMARKS
HAVRE          MOCLDY    18  17  96 CALM      30.03R
LEWISTOWN      LGT SNOW  19  16  88 S5        29.95R FOG
N BAR RANCH    CLOUDY    21  19  93 E5        29.96S FOG
CHINOOK          N/A    N/A N/A N/A E7        30.03S
DENTON         MOCLDY    19  16  87 CALM      29.94S
FORT BENTON      N/A     25  21  86 MISG      30.02S
GEYSER         CLOUDY    20  16  85 SW8       29.95R WCI  10
GRASS RANGE    LGT SNOW  23  23  99 E3        29.94R
JUDITH GAP     LGT SNOW  14  12  91 SW13      29.92R VSB 7/8 WCI   0
ROY            MOCLDY    24  23  98 MISG      29.96S FOG
STANFORD       CLOUDY    21  15  79 CALM      29.93S
WINIFRED       CLOUDY    21  21  98 SE7       29.96S WCI  13
$$

MTZ017>020-022>027-061-062-241500-
NORTHEAST MONTANA

CITY           SKY/WX    TMP DP  RH WIND       PRES   REMARKS
GLASGOW        CLOUDY    25  21  85 E8        30.08F WCI  16
JORDAN           N/A     26  22  84 SE9       30.04F WCI  17
SIDNEY         MOCLDY    19  14  81 SW3       30.15R
WOLF POINT     CLOUDY    26  20  77 E7        30.13R WCI  18
PLENTYWOOD       N/A     19  16  86 CALM      30.12S
SCOBEY           N/A     22  12  65 N1        30.07
$$

MTZ028>42-056>058-241500-
SOUTHCENTRAL AND SOUTHEAST MONTANA

CITY           SKY/WX    TMP DP  RH WIND       PRES   REMARKS
BAKER          CLEAR     14   9  80 SE10      30.07R WCI   1
BILLINGS       LGT SNOW  25  23  92 NE8       29.95S FOG     WCI  16
LIVINGSTON     LGT SNOW  20  16  84 W3        29.92R FOG
MILES CITY     CLOUDY    25  18  74 SE10      30.06S WCI  15
BIG TIMBER     CLOUDY    21  19  93 CALM      29.95R FOG
EKALAKA          N/A     13   6  73 SE12      29.98  WCI  -1
FORSYTH          N/A     27  25  93 E7        30.04R WCI  19
HARLOWTON      FLURRIES  21  20  96 E6        29.94R WCI  13
LAUREL           N/A     25  19  77 CALM      29.93R
ROUNDUP          N/A     25  20  81 NE5       29.90R
$$

REGIONAL REPORTS...DAKOTAS

CITY           SKY/WX    TMP DP  RH WIND       PRES   REMARKS
WILLISTON      CLOUDY    18  15  88 CALM      30.14S
MINOT          CLEAR     17  11  77 W5        30.14S
DICKINSON      CLOUDY     4   0  83 W3        30.08R
BEACH            N/A    N/A N/A N/A MISG        N/A
CROSBY         CLOUDY    23  18  80 CALM      30.15S
TIOGA          CLOUDY    19  19 100 W5        30.13S
WATFORD CITY   CLOUDY    10   9  92 W3        30.13S
BISMARCK       CLOUDY    20  14  77 NW3       30.15R
GRAND FORKS    CLOUDY    17   5  59 NE7       30.15R WCI   8
FARGO          CLOUDY    19  12  74 N15       30.11R WCI   5
BUFFALO SD       N/A     14   9  80 E5        29.99R
RAPID CITY     CLOUDY    17  13  84 N10       30.05R WCI   5
$$

REGIONAL REPORTS...WYOMING/IDAHO/WASHINGTON

CITY           SKY/WX    TMP DP  RH WIND       PRES   REMARKS
GILLETTE         N/A     21  18  88 MISG      29.94R FOG
SHERIDAN       CLOUDY    20  14  77 CALM      29.94R
BUFFALO WY     CLOUDY    18  13  80 S6        29.91R WCI  10
CODY           CLOUDY    16  12  84 S5        29.90R
YELLOWSTONE LA   N/A      4   2  91 CALM      29.79R
IDAHO FALLS    LGT SNOW  20  19  96 S16G25    29.90R FOG     WCI   6
SALMON         CLOUDY    25  18  74 CALM      29.94R
SPOKANE        PTCLDY    20  18  92 SE5       30.09R
$$

REGIONAL REPORTS...ALBERTA

CITY           SKY/WX    TMP DP  RH WIND       PRES   REMARKS
EDMONTON       PTCLDY    18  14  86 N12       30.11R WCI   5
CALGARY        LGT SNOW  18  16  93 N8        30.00R WCI   7
LETHBRIDGE     PTCLDY    10   9  92 W7        30.01R WCI   0
MEDICINE HAT   FLURRIES  23  21  93 N5        30.04R
WATERTON GATE    N/A     12   7  79 S10         N/A  WCI  -1
CARDSTON         N/A      3  -2  78 E1          N/A
MILK RIVER       N/A     19  18  93 W8          N/A  WCI   9
$$

REGIONAL REPORTS...SASKATCHEWAN

CITY           SKY/WX    TMP DP  RH WIND       PRES   REMARKS
SWIFT CURRENT  FLURRIES  21  21 100 S8        30.02S WCI  12
REGINA         MOCLDY    18  14  86 SW5       30.10F
SASKATOON      MOCLDY    16  14  93 E5        30.12S
VAL MARIE        N/A     23  19  86 S8          N/A  WCI  14
ROCKGLEN         N/A     19  16  86 S7          N/A  WCI  10
$$




USA.gov is the U.S. government's official web portal to all federal, state and local government web resources and services.